Temperature
17 16 15 14 13 13 13 12 12 12 12 12 12 12 11 11 11 11 11 11 11 11 11 11 11 11 11 12 12 12 12 13 13 13 13 12 12 12 12 13 13 13 13
18 17 15 14 13 13 13 12 12 12 12 12 12 11 11 11 11 11 11 11 11 11 11 11 11 11 11 11 11 11 12 12 12 12 12 12 11 11 11 12 12 12 13
18 17 15 15 14 13 13 12 12 12 12 12 11 11 11 11 11 11 11 11 10 11 11 11 11 11 11 11 11 11 11 12 12 12 12 12 11 11 11 11 11 12 12
18 17 16 15 14 13 13 13 12 12 12 11 11 11 11 10 10 10 11 11 11 11 11 11 11 11 11 11 11 11 11 12 12 12 11 11 11 10 10 11 11 11 11
18 17 16 15 14 13 13 13 12 12 12 11 11 11 11 10 10 10 11 11 11 11 11 11 11 11 11 11 11 11 11 12 11 11 11 11 10 10 10 10 10 11 11
18 17 16 15 14 13 13 13 12 12 11 11 11 11 10 10 10 11 11 11 11 11 11 11 11 11 11 11 11 11 11 11 11 11 11 10 10 9 9 10 10 10 10
18 17 16 15 14 13 13 12 12 12 11 11 11 10 10 10 10 11 11 11 11 11 11 11 11 11 11 11 11 11 11 11 10 10 10 10 10 9 9 10 10 10 10
18 17 16 15 14 13 13 12 12 11 11 11 11 10 10 10 10 10 10 11 11 10 11 11 11 11 11 11 11 11 11 10 10 10 10 10 10 10 9 10 10 10 10
17 17 16 15 14 13 12 12 11 11 11 10 10 10 10 10 10 10 10 10 10 10 10 10 10 10 10 10 10 10 10 10 10 10 10 10 10 10 9 9 9 9 9
17 16 15 15 14 13 12 11 11 11 10 10 10 10 10 9 9 9 10 10 10 10 10 10 10 10 10 10 10 10 10 10 10 10 10 10 10 9 9 9 9 9 9
16 16 15 14 14 13 12 11 11 11 10 10 10 10 9 9 9 9 9 9 9 9 9 9 9 9 9 9 9 9 9 9 9 9 9 9 9 9 8 8 8 8 8
17 16 15 14 14 13 12 11 11 10 10 10 10 9 9 9 9 9 9 8 8 8 8 8 8 9 9 9 9 9 9 9 9 9 9 9 9 9 8 8 7 7 7
17 16 15 14 13 13 12 11 11 10 10 10 9 9 9 9 8 8 8 8 8 8 8 8 8 8 8 8 8 8 8 8 8 8 8 8 8 8 8 7 7 7 7
17 16 15 14 13 13 12 11 11 10 10 10 9 9 9 9 8 8 8 8 8 7 7 7 7 7 7 7 7 8 7 8 8 8 8 8 8 8 8 8 7 7 7
17 16 15 14 14 13 12 11 11 11 10 10 9 9 9 9 8 8 8 8 7 7 7 7 7 7 7 7 7 7 7 7 7 7 8 8 8 8 8 8 7 7 7
17 16 15 15 14 13 12 11 11 11 10 10 9 9 9 9 8 8 8 8 8 7 7 7 7 7 7 7 7 7 7 7 7 7 7 7 7 7 8 8 8 7 7
17 16 15 15 14 13 12 11 11 10 10 10 9 9 9 9 8 8 8 8 8 7 7 7 7 7 7 7 7 7 7 7 7 7 7 8 8 8 8 8 8 8 7
17 16 16 15 14 13 12 11 11 10 10 10 9 9 9 9 8 8 8 8 8 7 7 7 7 7 7 6 6 7 7 7 7 8 8 8 8 8 7 7 7 7 7
17 16 16 15 14 13 12 11 11 10 10 10 9 9 9 9 9 8 8 8 8 7 7 7 7 7 6 6 7 7 7 7 8 8 8 7 7 7 7 7 7 7 7
16 16 15 15 14 13 12 11 11 10 10 9 9 9 9 9 8 8 8 8 7 7 7 7 7 7 6 6 6 7 7 8 8 8 8 7 7 7 7 7 7 7 7
16 16 15 15 14 13 12 11 11 10 10 9 9 9 9 9 8 8 8 8 7 7 7 7 7 6 6 6 6 7 7 8 8 7 7 7 7 7 7 6 6 6 6
16 15 15 14 14 13 12 11 11 10 10 10 9 9 9 9 8 8 8 8 7 7 7 7 6 6 6 6 6 5 6 6 6 7 7 7 7 6 6 6 6 6 6
15 15 15 14 14 13 12 11 11 10 10 10 9 9 9 9 8 8 8 8 7 7 7 7 6 6 6 6 5 5 4 4 4 5 5 6 6 6 6 5 6 6 6
15 15 14 14 13 13 12 11 11 11 10 10 10 9 9 9 8 8 8 8 7 7 7 7 6 6 6 6 5 5 4 3 2 3 4 5 5 5 5 5 5 5 5
15 14 14 13 13 12 12 11 11 11 10 10 10 9 9 9 8 8 8 7 7 7 7 6 6 6 6 5 5 4 4 4 3 2 2 4 4 5 4 4 4 4 4
14 14 13 13 13 12 12 11 11 11 10 10 10 9 9 9 8 8 8 7 7 7 6 6 6 5 5 5 4 4 4 3 3 2 1 2 2 3 4 4 4 4 3
Wind_Speed
6 12 18 17 16 14 13 13 12 11 11 12 13 13 13 12 12 12 13 13 14 14 15 15 16 16 15 16 17 17 18 19 19 20 19 18 18 18 18 18 18 18 19
9 17 19 18 16 15 14 13 13 11 11 12 13 13 12 12 12 12 12 13 13 14 14 14 14 15 15 15 15 16 16 17 17 18 18 18 17 17 17 17 17 16 17
11 19 19 19 18 16 15 14 13 12 12 12 12 12 12 11 11 11 11 12 12 13 13 14 14 13 14 14 14 15 15 15 16 17 17 17 15 16 16 16 16 16 16
16 18 18 20 19 17 16 15 13 13 12 12 12 11 11 11 11 11 11 11 11 12 12 12 12 12 12 13 14 14 14 14 15 16 16 16 14 14 15 15 15 14 14
15 17 20 21 19 18 17 15 14 13 12 12 11 11 11 10 10 10 10 10 11 11 11 11 11 11 11 12 12 13 13 13 14 15 16 16 14 13 13 13 13 13 13
12 17 20 21 20 18 17 15 14 14 12 12 11 11 10 10 10 10 10 10 10 10 10 10 10 11 10 10 11 11 11 12 13 14 14 14 13 12 12 12 12 12 12
11 16 19 21 20 19 18 16 14 14 13 12 11 11 10 9 9 9 8 8 9 9 9 9 9 10 9 9 9 10 10 10 11 11 12 12 11 10 10 10 10 10 10
11 14 17 20 19 18 18 16 14 14 13 12 11 11 10 9 8 8 7 7 7 7 7 8 8 8 8 8 8 9 9 9 8 8 9 10 10 9 9 9 8 8 8
12 13 14 17 18 18 18 16 15 14 13 12 11 11 10 9 8 7 6 6 6 6 6 6 6 7 7 7 8 8 8 7 7 7 7 8 9 9 9 8 8 8 8
8 9 11 14 16 16 17 17 16 14 13 12 11 11 10 9 7 7 6 4 4 4 4 4 4 5 6 6 7 7 7 7 6 6 7 8 9 10 10 9 9 9 9
10 8 9 10 13 14 15 16 16 15 14 12 11 12 10 9 7 6 6 4 2 1 1 2 2 4 5 5 6 6 6 6 7 8 9 9 11 11 11 11 11 11 10
15 12 8 9 12 13 13 14 14 14 13 12 12 12 11 10 8 7 6 4 2 1 1 2 3 4 4 5 6 6 7 7 8 9 11 11 12 13 13 13 13 13 13
15 14 11 9 12 13 11 12 12 12 11 12 12 12 11 9 7 6 5 4 3 2 2 3 4 4 4 5 6 7 8 8 9 11 13 13 13 14 15 15 15 15 15
13 15 13 11 11 12 12 11 11 10 10 10 12 13 11 8 7 7 6 6 5 5 4 4 5 5 6 7 7 8 9 10 11 12 14 13 14 15 16 17 17 16 16
13 15 14 12 11 11 10 9 10 10 10 12 12 13 13 9 7 7 7 7 7 7 7 6 6 6 6 7 8 8 10 11 12 13 14 14 15 15 17 18 18 18 18
14 15 14 14 13 12 9 8 9 11 11 12 12 13 13 11 9 7 6 7 8 8 8 8 7 6 6 6 7 8 10 11 12 13 14 14 14 15 17 17 18 17 17
13 14 15 15 13 12 10 10 10 11 11 10 11 12 12 12 10 9 6 6 8 9 8 7 6 5 4 4 5 7 8 10 11 12 13 13 14 13 14 15 15 15 15
10 13 15 14 14 13 10 9 9 10 10 10 10 10 11 11 11 9 6 6 7 6 5 4 3 2 3 3 4 4 6 8 10 11 11 11 11 11 11 12 12 13 14
11 13 15 14 15 13 10 9 9 9 8 8 9 9 9 10 10 8 6 5 5 4 3 2 1 2 2 3 4 5 5 5 7 9 8 9 9 8 8 9 11 12 14
8 10 13 13 12 11 8 6 5 5 5 6 7 7 8 7 8 7 5 4 4 2 1 1 1 1 2 3 4 5 5 5 5 4 5 6 6 7 7 9 10 11 14
7 9 12 13 12 11 8 7 6 5 4 3 4 6 6 6 7 6 4 3 3 2 2 1 1 0 1 2 3 5 5 4 4 3 3 4 5 7 8 9 11 13 14
8 10 11 12 13 12 9 6 4 4 3 3 3 4 5 5 5 5 4 3 3 2 2 2 1 1 1 1 1 2 5 6 4 3 4 3 4 6 8 11 14 15 15
8 10 11 11 12 11 10 7 6 5 4 3 3 2 3 5 6 6 5 4 3 3 2 2 2 2 0 1 0 1 1 3 4 4 4 4 4 4 6 11 14 15 16
7 8 9 10 10 10 11 10 9 6 5 4 4 3 3 5 6 6 6 6 4 3 3 2 2 2 2 1 1 1 3 3 3 5 4 4 5 6 6 8 11 15 17
7 8 8 9 9 9 10 11 10 6 5 4 4 5 4 4 5 6 6 6 4 3 2 2 2 2 2 3 2 2 2 2 5 5 7 5 5 5 6 7 10 13 16
7 7 8 10 9 9 9 9 10 10 9 8 6 5 4 2 2 4 5 5 4 2 2 1 2 2 2 3 3 3 3 3 4 5 6 7 7 5 6 6 7 9 13
Wind_Direction
202 192 175 163 163 159 152 144 137 127 121 115 109 102 97 93 87 82 78 74 70 69 70 68 65 65 65 63 61 59 59 57 55 53 51 53 57 57 55 54 51 46 49
161 178 173 164 164 160 152 145 140 131 127 121 114 107 101 95 89 83 78 75 72 70 69 69 67 65 64 64 62 61 61 58 56 54 49 42 50 56 54 51 51 49 48
150 170 170 165 164 159 152 146 141 138 131 124 118 112 107 99 92 86 81 76 74 71 68 68 67 66 63 62 62 61 61 60 58 54 45 33 37 53 55 53 51 49 48
155 166 168 166 164 161 154 149 146 141 135 128 122 116 110 102 95 90 86 81 77 74 71 69 67 66 64 61 61 61 61 60 57 51 41 32 31 48 50 50 51 50 48
156 165 168 167 166 164 158 155 153 148 142 135 129 123 115 107 100 93 88 85 81 77 74 71 69 67 65 61 60 60 59 57 54 48 39 30 25 42 47 46 46 45 45
156 164 170 168 169 167 162 159 156 153 149 144 137 129 121 113 105 98 92 88 85 81 76 73 70 67 64 60 59 58 58 56 51 45 35 26 17 33 40 39 38 37 37
154 163 172 171 171 170 167 164 162 158 155 151 144 136 128 119 111 104 98 93 87 81 76 72 68 65 60 57 54 52 53 53 50 42 30 18 11 23 30 29 26 25 25
153 160 174 174 174 173 171 169 168 164 159 157 151 144 136 127 121 113 105 97 89 81 74 68 63 59 55 52 50 47 47 49 46 34 18 7 2 6 13 15 11 10 9
152 159 175 177 177 177 174 172 173 170 166 163 159 151 143 137 132 124 115 105 94 83 72 63 56 50 47 44 42 41 41 44 39 21 3 352 346 346 349 351 350 348 348
154 164 177 177 176 177 177 175 175 175 172 169 165 157 151 149 144 136 127 120 108 93 76 59 47 40 36 31 28 27 31 27 15 358 343 336 334 333 333 332 331 329 329
174 177 179 176 175 174 175 178 176 177 176 174 168 164 157 151 147 143 146 151 145 114 61 35 20 19 24 17 7 5 6 356 344 332 324 322 326 327 326 324 322 319 316
187 187 183 177 174 173 176 178 176 176 178 174 168 163 158 157 160 161 173 189 206 236 303 336 354 7 5 343 338 340 333 324 317 312 312 315 320 322 322 321 319 316 313
189 189 187 180 176 174 173 172 172 173 172 171 168 163 161 160 165 170 183 204 230 245 266 312 328 324 314 308 309 313 310 305 301 300 302 307 312 316 317 317 315 312 309
187 193 189 182 179 179 174 172 172 170 169 170 173 171 166 165 172 184 196 208 217 225 233 252 268 280 287 289 289 292 294 292 292 294 297 300 306 311 313 312 310 308 306
191 194 192 185 183 179 175 174 174 175 176 178 180 181 179 177 185 194 204 211 219 223 228 237 251 265 276 284 286 283 286 288 289 290 291 296 301 306 310 311 310 308 306
196 195 192 190 185 179 178 176 176 179 181 180 184 189 190 190 191 194 203 213 223 227 232 236 244 253 265 272 279 280 280 284 286 288 290 293 298 304 310 312 311 310 309
197 193 192 192 185 182 180 179 178 180 180 182 190 194 195 197 198 197 200 213 227 232 234 239 250 252 262 268 273 281 281 281 282 286 290 293 297 303 311 318 320 319 318
191 189 191 190 186 185 181 177 176 178 180 186 189 192 198 202 202 196 200 218 228 224 221 227 237 249 263 271 280 284 284 285 286 289 294 297 302 308 316 326 333 336 335
190 184 186 185 184 183 176 172 171 172 176 182 183 188 195 198 198 196 204 215 211 202 208 218 216 226 270 287 287 284 282 281 288 298 302 307 313 319 325 334 342 346 346
179 176 179 178 176 171 162 151 147 150 158 168 173 181 183 185 187 187 190 197 184 167 181 191 225 235 261 290 299 296 288 291 300 300 301 314 326 334 340 343 345 345 343
159 166 172 172 169 165 165 163 158 161 155 149 156 163 166 168 170 168 166 164 158 160 177 166 163 293 328 347 342 323 314 315 317 297 307 320 330 336 342 344 339 333 330
165 167 168 170 169 170 169 158 145 140 136 136 132 132 142 150 156 158 156 152 150 137 118 113 121 102 15 30 50 350 336 336 335 322 324 315 318 329 331 330 324 319 316
170 170 170 168 165 161 148 133 114 98 89 100 112 114 106 131 136 137 139 135 130 129 135 137 141 144 183 345 194 172 296 293 307 308 309 305 302 305 311 312 307 306 306
176 163 158 157 156 153 151 154 152 153 156 166 152 136 110 112 118 122 125 125 124 122 128 143 144 153 157 230 288 239 224 224 270 304 301 293 295 293 292 296 297 298 298
158 154 150 147 148 151 154 157 153 145 139 130 125 124 112 95 107 119 125 124 123 123 131 140 140 160 173 192 211 227 251 248 232 254 286 295 296 268 271 276 284 287 292
147 147 147 149 148 150 150 152 154 150 145 142 141 139 130 116 103 111 121 122 126 129 141 161 170 187 200 211 217 212 214 230 231 237 267 289 293 279 272 266 270 280 290
Height
1534 1536 1538 1541 1543 1545 1546 1548 1549 1550 1551 1552 1552 1552 1552 1552 1552 1553 1553 1553 1553 1554 1554 1554 1554 1554 1554 1553 1553 1553 1553 1552 1553 1552 1553 1553 1553 1553 1553 1553 1553 1553 1554
1534 1536 1538 1540 1543 1545 1547 1548 1549 1550 1552 1552 1553 1553 1553 1553 1553 1553 1554 1554 1554 1554 1554 1554 1554 1554 1554 1554 1554 1554 1553 1553 1553 1553 1553 1553 1554 1553 1553 1553 1553 1553 1553
1534 1536 1538 1540 1543 1545 1547 1548 1549 1551 1552 1553 1553 1554 1554 1554 1554 1554 1554 1554 1555 1555 1555 1555 1555 1555 1555 1555 1555 1554 1554 1554 1554 1554 1554 1554 1554 1554 1554 1553 1553 1553 1553
1535 1536 1538 1540 1543 1545 1547 1548 1550 1551 1552 1553 1554 1554 1555 1555 1555 1555 1555 1555 1555 1555 1555 1555 1555 1555 1555 1555 1555 1555 1555 1554 1554 1555 1555 1555 1554 1555 1554 1554 1553 1553 1553
1535 1536 1538 1540 1542 1545 1547 1548 1550 1551 1553 1553 1554 1555 1555 1555 1555 1556 1556 1556 1556 1556 1556 1556 1556 1556 1556 1556 1556 1556 1555 1555 1555 1555 1555 1555 1555 1555 1555 1554 1554 1553 1553
1535 1536 1538 1540 1542 1544 1546 1548 1550 1551 1553 1554 1555 1555 1556 1556 1556 1556 1556 1557 1557 1557 1557 1557 1557 1557 1557 1556 1556 1556 1556 1556 1556 1556 1556 1556 1556 1556 1555 1555 1554 1554 1553
1534 1536 1538 1540 1542 1545 1546 1548 1550 1552 1553 1554 1555 1556 1556 1557 1557 1557 1557 1558 1558 1558 1558 1558 1558 1558 1557 1557 1557 1557 1557 1557 1557 1557 1557 1557 1556 1556 1556 1555 1554 1554 1553
1535 1536 1538 1540 1542 1544 1546 1548 1550 1552 1553 1554 1556 1556 1557 1557 1557 1558 1558 1558 1558 1559 1559 1559 1558 1558 1558 1558 1558 1558 1558 1558 1558 1557 1557 1557 1557 1556 1556 1555 1555 1554 1554
1534 1536 1538 1540 1542 1544 1546 1548 1550 1552 1553 1554 1556 1557 1557 1558 1558 1558 1559 1559 1559 1559 1559 1559 1559 1559 1559 1558 1558 1558 1558 1558 1558 1558 1557 1557 1556 1556 1556 1555 1555 1554 1553
1533 1535 1537 1539 1541 1543 1545 1547 1549 1551 1553 1554 1556 1557 1557 1558 1559 1559 1559 1560 1560 1560 1560 1560 1560 1559 1559 1559 1559 1558 1558 1558 1558 1557 1557 1556 1556 1555 1555 1555 1554 1554 1553
1531 1533 1535 1537 1539 1542 1544 1547 1549 1550 1552 1554 1555 1556 1557 1558 1558 1559 1559 1560 1560 1560 1560 1560 1560 1560 1559 1559 1559 1558 1558 1558 1557 1557 1556 1555 1555 1554 1554 1554 1553 1553 1552
1528 1530 1533 1535 1538 1540 1543 1545 1547 1549 1551 1553 1554 1555 1556 1557 1558 1559 1559 1560 1560 1560 1560 1560 1560 1559 1559 1559 1558 1558 1557 1557 1556 1556 1555 1554 1553 1552 1552 1552 1551 1551 1550
1526 1528 1530 1533 1536 1538 1541 1543 1546 1548 1550 1551 1553 1554 1556 1557 1558 1558 1559 1559 1559 1560 1560 1559 1559 1559 1558 1558 1557 1557 1556 1556 1555 1554 1553 1552 1551 1550 1549 1549 1549 1548 1548
1523 1525 1528 1531 1534 1536 1539 1542 1544 1546 1548 1550 1552 1553 1554 1555 1556 1557 1558 1558 1558 1558 1558 1558 1558 1558 1557 1557 1556 1555 1555 1554 1553 1552 1551 1550 1549 1547 1546 1546 1545 1545 1544
1520 1523 1525 1528 1531 1534 1537 1539 1542 1544 1547 1549 1550 1552 1553 1554 1555 1556 1557 1557 1557 1557 1557 1557 1556 1556 1556 1555 1554 1553 1552 1551 1550 1549 1548 1547 1545 1544 1543 1542 1541 1541 1540
1517 1520 1522 1525 1528 1531 1534 1537 1540 1543 1545 1547 1549 1551 1552 1553 1554 1554 1555 1555 1555 1555 1555 1555 1555 1554 1553 1553 1551 1550 1549 1548 1547 1545 1544 1543 1542 1540 1539 1538 1537 1536 1535
1513 1516 1519 1522 1525 1529 1532 1535 1538 1541 1543 1545 1547 1549 1550 1551 1552 1552 1553 1553 1553 1553 1553 1553 1552 1552 1551 1550 1548 1547 1546 1544 1543 1542 1540 1539 1538 1536 1535 1534 1532 1531 1530
1509 1512 1515 1519 1522 1526 1529 1533 1536 1539 1541 1543 1545 1547 1548 1549 1550 1550 1551 1551 1551 1551 1551 1550 1550 1549 1548 1546 1545 1543 1542 1541 1539 1538 1537 1535 1534 1533 1532 1530 1529 1528 1526
1504 1507 1511 1514 1518 1523 1527 1531 1534 1537 1539 1541 1543 1544 1546 1547 1547 1548 1548 1549 1549 1548 1548 1547 1547 1546 1544 1542 1541 1539 1538 1536 1535 1534 1533 1532 1531 1530 1529 1527 1526 1525 1523
1500 1503 1507 1511 1515 1520 1524 1528 1531 1534 1536 1538 1540 1542 1543 1544 1545 1545 1546 1546 1546 1545 1545 1544 1543 1542 1541 1539 1537 1535 1534 1532 1531 1530 1530 1529 1528 1527 1526 1524 1523 1521 1520
1497 1500 1503 1507 1511 1516 1520 1524 1527 1530 1533 1536 1538 1539 1540 1541 1542 1542 1543 1543 1543 1542 1542 1541 1540 1539 1537 1536 1534 1531 1530 1528 1527 1526 1527 1526 1525 1524 1523 1521 1519 1517 1516
1493 1496 1499 1503 1507 1512 1516 1520 1524 1528 1531 1533 1535 1536 1537 1538 1539 1539 1539 1539 1539 1539 1538 1537 1536 1535 1534 1533 1531 1528 1525 1524 1523 1523 1523 1522 1521 1520 1519 1517 1515 1513 1510
1490 1493 1496 1500 1504 1509 1513 1518 1522 1525 1528 1530 1531 1533 1534 1535 1535 1536 1536 1536 1536 1535 1535 1534 1533 1533 1532 1531 1529 1528 1526 1522 1519 1517 1516 1516 1515 1514 1513 1511 1509 1507 1505
1486 1490 1494 1498 1502 1506 1510 1514 1518 1521 1524 1526 1529 1530 1531 1532 1533 1533 1533 1533 1533 1532 1532 1531 1530 1530 1529 1528 1527 1526 1525 1522 1519 1512 1510 1510 1510 1508 1506 1505 1503 1501 1499
1483 1487 1491 1495 1499 1503 1507 1512 1515 1518 1521 1524 1526 1527 1528 1529 1530 1530 1530 1530 1530 1529 1529 1528 1527 1527 1525 1524 1523 1522 1520 1519 1516 1512 1504 1502 1501 1501 1499 1497 1496 1493 1491
1480 1484 1488 1492 1496 1500 1505 1509 1512 1515 1518 1521 1522 1524 1525 1526 1527 1527 1527 1527 1527 1527 1526 1525 1524 1523 1522 1521 1520 1518 1516 1514 1512 1508 1502 1496 1492 1491 1490 1490 1488 1486 1483